STARLINK-1267, 45384

Orbit data source: Space-Track

STARLINK-1267, 45384 is a payload satellite owned by SpaceX/Seattle (US) in LEO that was launched on Wed, 18 Mar 2020 UTC via an FALCON 9 launch vehicle from the Air Force Eastern Test Range (AFETR). Payload-class satellites include a variety of spacecraft equipped with specific instruments for various scientific and technological missions. These include communications satellites like Starlink; space stations such as the ISS; scientific satellites like the Hubble; Earth observation satellites from companies like Planet Labs, Umbra, and HawkEye 360; GPS; miniature CubeSats for education and research; and military/defense satellites.

Loading next visibility...
Identifier
45384, 2020-019AA
Orbit
LEO
Country
Flag of USUS
Related business
Manufacturer
SpaceX/Seattle
Mission
Partially operational Commercial Communications
Bus & Motor
STARLINK, Unknown motor
Mass
260 kg wet, ~248 kg dry
Launch date (UTC)
2020-03-18 (6 years ago)
Launch vehicle
FALCON 9
Launch site
Air Force Eastern Test Range (AFETR)
Object type
Payload
Rocket body
Debris
Shape & HBR
Box + 1 Pan, 10.1 m
Radar Cross Section
13.562 m², Large (>1 m²)

Expand to show TLE details & history
Last TLE update: 1 day ago

TLE from 1 day ago
0 STARLINK-1267
1 45384U 20019AA  26145.33902169  .00079268  00000-0  84423-3 0  9993
2 45384  53.0435 115.4483 0007557  60.2930 299.8835 15.63289187342223
Epoch: 2026-05-25T08:08Z
TLE epoch observation values (Epoch: 2026-05-25T08:08:11.474Z)
Latitude
0.00001°
Longitude
110.47226°
Altitude
376.522 km
Speed
7.687 km/s
True Right ascension
07h 41m 47s
True Declination
0° 00' 00"
Sunlit
Object was in daylight at epoch
Visualization orbit readout
Latitude
Unknown
Longitude
Unknown
Altitude
Unknown
Speed
Unknown
Apparent Right ascension
Unknown
Apparent Declination
Unknown
Sunlit
N/A
Visualization observer readout
Local Sidereal Time
18:11:07
Azimuth
Unknown
Elevation
Unknown
Doppler factor
Unknown
Orbital elements
Apogee altitude
383.549 km
Perigee altitude
373.337 km
Semi-major axis
6,756.58 km
Eccentricity
0.00076
Inclination
53.0435°
RAAN
115.4483°
Arg. of periapsis
60.293°
True anomaly
299.80838°
Mean anomaly
299.8835°
Eccentric anomaly
299.84594°
Mean motion
3.90798 °/min
Orbital period
92.12 mins
BSTAR
0.00084423
Loading maneuver chart data...
Computing Atmospheric mass density...

Documentation

Showing up to 5 results
|